{"data":{"norad_id":65625,"intl_designator":"2025-210D","name":"STARLINK-35153","alt_names":[],"object_type":"PAYLOAD","status":"ACTIVE","operator":null,"country":"US","launch_date":"2025-09-18","launch_site_code":"AFETR","launch_vehicle":null,"mission":null,"orbit_class":"UNKNOWN","rcs_meters":null,"size_class":null,"mass_kg":null,"dimensions":null,"purposes":["comms"],"wikipedia_slug":null,"has_3d_model":false,"image_url":null,"decayed_at":null,"tle_current":{"epoch":"2026-09-20T21:14:40.975872Z","epoch_age_seconds":78741,"freshness":"FRESH","line1":"1 65625U 25210D   26263.88519648  .00012048  00000+0  36708-3 0  9993","line2":"2 65625  53.1563 115.6465 0002145  89.3337 270.7911 15.34405949 57601","mean_motion":15.34405949,"eccentricity":0.0002145,"inclination_deg":53.1563,"raan_deg":115.6465,"arg_perigee_deg":89.3337,"mean_anomaly_deg":270.7911,"bstar":0.00036708,"rev_number":5760,"period_min":93.847394226963,"perigee_km":461.21820214372,"apogee_km":464.15291502135,"semimajor_km":6840.8225585825,"source":"CELESTRAK","updated_at":"2026-09-21T09:00:35.659000Z"}}}